Regional Weather Roundup
Issued by NWS Portland, ME

Home | Current Version | Previous Version | Text Only | Print | Product List | Glossary On
Versions: 1 2 3 4 5 6 7 8 9 10 11 12 13 14 15 16 17 18 19 20 21 22 23 24 25 26 27 28 29 30 31 32 33 34 35 36 37 38 39 40 41 42 43 44 45 46 47 48 49 50
000
ASUS41 KGYX 281610
RWRGYX
WEATHER ROUNDUP FOR MAINE AND NEW HAMPSHIRE
NATIONAL WEATHER SERVICE GRAY ME
1200 PM EDT TUE JUL 28 2015

MEZ002-005-006-010-012-015-018-020-021-024-026-027-029-281700-
MAINE

CITY           SKY/WX    TMP DP  RH WIND       PRES   REMARKS
PORTLAND       MOSUNNY   78  68  71 E8        29.96S
SANFORD        SUNNY     81  64  57 SE5       29.97S
BAR HARBOR     MOSUNNY   70  70 100 S5        29.96F
WISCASSET      MOSUNNY   78  68  71 S7        29.97S
ROCKLAND       SUNNY     70  64  83 CALM      29.96S
FRYEBURG       SUNNY     83  64  52 VRB3      29.97S
LEWISTONAUBURN MOSUNNY   79  64  61 CALM      29.97S
AUGUSTA        MOSUNNY   78  68  71 VRB6      29.96S
BANGOR         MOSUNNY   77  66  68 SE9       29.94S
GREENVILLE       N/A     76  63  64 VRB6      29.95F
MILLINOCKET    SUNNY     79  65  62 SW5       29.92F
HOULTON        MOSUNNY   80  62  54 W8        29.88F
PRESQUE ISLE   MOSUNNY   79  57  47 W13       29.88F
FRENCHVILLE    SUNNY     76  54  46 NW7       29.89S
CARIBOU        MOSUNNY   80  55  42 W8        29.87F
$$

NHZ002-005-008-009-011-012-014-281700-
NEW HAMPSHIRE

CITY           SKY/WX    TMP DP  RH WIND       PRES   REMARKS
PORTSMOUTH     MOSUNNY   79  67  66 E9        29.94S
ROCHESTER      SUNNY     83  61  47 VRB3      29.95F
MANCHESTER     MOSUNNY   85  64  49 NW10      29.94F
CONCORD        SUNNY     87  63  44 N8        29.96S
LACONIA        SUNNY     82  63  51 NW7       29.96S
PLYMOUTH       FAIR      80  69  68 W7        29.97S
BERLIN         SUNNY     81  63  54 VRB7      29.99F
WHITEFIELD       N/A     79  62  56 MISG      30.01F
JAFFREY        SUNNY     82  64  54 VRB7      30.00S
KEENE          SUNNY     82  64  54 CALM      29.97F
LEBANON        SUNNY     83  67  58 NE6       29.98S
MT WASHINGTON  MOSUNNY   55  50  82 NW9         N/A
$$

VTZ005-007-008-281700-
VERMONT

CITY           SKY/WX    TMP DP  RH WIND       PRES   REMARKS
ST JOHNSBURY     N/A     79  63  57 MISG      29.98S
MONTPELIER     SUNNY     77  64  64 N5        30.05S
BURLINGTON     MOSUNNY   81  66  60 SE3       29.98F
$$

MAZ007-012-024-CTZ003-RIZ002-NYZ038-NYZ072-281700-
SOUTHERN NEW ENGLAND AND NY

CITY           SKY/WX    TMP DP  RH WIND       PRES   REMARKS
BOSTON         MOSUNNY   83  70  64 S8        29.95F
WORCESTER      SUNNY     82  62  50 NW8       30.00F
NANTUCKET      SUNNY     78  71  79 SW12      29.98F
PROVIDENCE     MOSUNNY   83  70  64 S5        29.96F
HARTFORD       PTSUNNY   88  67  49 VRB7      29.96F HX  91
ALBANY         MOSUNNY   86  66  51 SW3       29.98F
NEW YORK CITY  PTSUNNY   89  59  36 NW3       29.98S
$$

ANZ081-ANZ082-ANZ150-NHZ014-MEZ023>029-281700-
COASTAL MARINE OBSERVATIONS

STATION/POSITION TIME  TEMP    WIND        PRES    WAVE
                       AIR SEA DIR/SP/G            HT/PER
                 (UTC) (F)     (DEG/KT/KT) (MB)    (FT/S)
MOUNT DESERT ROC 1600   62     190/  7/  8 1015.2F
MATINICUS ROCK   1500   61     220/  9/ 10 1014.8R
ISLE OF SHOALS   1500   67      70/  7/  7 1014.2F
JEFFREYS LEDGE   1503      66                N/A     3/11
CASHES LEDGE BUO 1550   67                 1014.6S   3/10
GEORGES BANK BUO 1550   70 68  350/  6/  6 1015.8F   3/ 8
$$

.............KEY..............
   WCI - WIND CHILL
   TC  - TEMPERATURE IN CELSIUS
   VSB - VISIBILITY IN MILES
   HX  - HEAT INDEX
   FAIR- INDICATES FEW OR NO CLOUDS BELOW 12,000 FT, WITH NO
         SIGNIFICANT WEATHER AND/OR OBSTRUCTIONS TO VISIBILITY.





USA.gov is the U.S. government's official web portal to all federal, state and local government web resources and services.